COSMOS 2569 (703K)

Last updated on Mon Dec 15 2025 00:02:41 GMT+0000 (Coordinated Universal Time)

1 57517U 23114A 25347.89691796 -.00000052 00000+0 00000+0 0 9998 2 57517 65.1948 78.8743 0010560 286.9875 72.9108 2.13104015 18311
UTC large
Height (km)
Speed (km/s)
/
Latitude / Longitude
Inclination (degrees)
Orbital Period (minutes)
Azimuth
Elevation
Range (km)
Doppler Factor

Next 0 passes for location: London (51.5072 / 0.1276)

Sorry there are no passes over London.